Location: Mary A Oil Field
(38.5606°N, 98.9545°W)
Time: 13:18:39
(UTC+00:00)

Cosmos 1300 - Pass Details

Date: 20 January 2020
Orbit: 511 x 515 km, 82.5° (Epoch: 20 February)

Event Time Altitude Azimuth Distance (km) Brightness Sun altitude
Rises 00:37:22 0° 352° (N) 2,634 6.2 -10.8°
Reaches altitude 10° 00:39:30 10° 352° (N) 1,743 5.3 -11.2°
Maximum altitude 00:43:20 88° 264° (W) 518 2.7 -11.9°
Drops below altitude 10° 00:47:07 10° 175° (S) 1,726 5.5 -12.6°
Sets 00:49:14 0° 175° (S) 2,607 6.4 -13.0°
